SCP
-0 0 0 0 -0 0 0 0 0 0 -0 0 0 -0 0 0 -0 0 0 0 -0 -1 -1 -1 -0 -0 -0 -0 -0 -0 -0 -0
0 0 0 -0 -0 -0 -0 -0 0 -0 -0 0 0 0 -0 0 0 0 0 -0 -1 -1 -1 -0 -0 -0 -0 -0 -0 -0 -0 -0
0 0 -0 0 -0 0 -0 -0 -0 -0 -0 0 0 -0 -0 -0 0 0 0 0 -1 -1 -1 -1 -0 -0 -0 -0 -0 -0 -0 -0
0 0 0 -0 -0 0 0 0 -0 0 0 0 0 -0 -0 0 0 0 -0 0 -0 -1 -1 -0 -0 -0 -0 -0 -0 -0 -0 -0
0 0 0 0 0 0 -0 0 0 -0 0 0 0 -0 -0 -0 0 0 0 0 0 0 -0 -0 -0 -0 -0 -0 -0 -0 -0 -0
0 -0 0 0 0 0 0 -0 0 0 0 0 0 -0 0 0 0 0 0 0 0 0 0 0 0 -0 -0 -0 -0 -0 -0 -0
-0 -0 0 0 0 0 0 0 1 0 0 -0 -0 -0 0 0 0 0 0 0 0 0 0 0 -0 -0 -0 -0 -0 -0 -0 -0
0 0 0 0 0 0 1 1 1 0 -0 -0 -0 -0 -0 -0 0 0 -0 -0 0 0 -0 -0 -0 -0 0 0 0 -0 -0 -0
0 0 0 0 0 0 1 1 0 0 0 -0 -0 -0 -0 -0 -0 -0 -0 0 0 0 0 0 0 0 0 0 0 0 -0 -0
0 0 0 0 0 0 0 0 0 0 -0 -0 -0 -0 -0 -0 -0 -0 0 0 0 0 0 0 0 0 0 0 0 0 -0 -0
0 0 0 0 0 0 0 0 0 0 0 -0 -0 -0 -0 -0 0 0 -0 0 -0 0 0 0 0 0 0 0 0 0 -0 -0
0 0 0 0 0 0 0 1 1 0 0 0 0 0 0 0 0 0 0 0 0 0 0 0 0 0 0 0 0 0 0 -0
0 0 0 0 0 0 0 1 1 1 1 1 0 0 0 0 0 0 0 -0 0 0 0 0 0 0 0 0 0 0 0 0
0 0 0 0 0 0 1 1 1 1 1 1 0 0 1 0 0 0 0 0 0 0 0 0 0 0 0 -0 0 0 0 0
0 0 0 0 0 0 1 1 1 1 0 0 0 0 0 1 0 0 0 0 0 0 0 0 0 0 0 0 0 0 0 0
0 0 0 0 0 1 1 0 0 0 0 0 0 1 1 0 0 0 0 0 0 0 0 0 0 0 0 0 0 0 0 0
0 0 0 0 0 1 0 0 0 0 0 0 0 0 0 0 0 0 0 0 0 0 0 0 0 0 0 0 0 0 0 0
0 0 0 0 0 0 0 0 0 0 0 0 0 0 0 0 0 0 0 0 0 0 0 0 1 1 1 1 0 0 0 0
0 0 0 0 0 0 0 0 0 0 0 0 0 0 0 0 0 0 0 0 0 0 0 0 0 0 1 1 0 0 0 0
0 0 0 0 0 0 0 0 0 0 0 0 0 0 0 0 0 0 0 0 0 0 0 0 0 0 0 0 0 0 0 0
Wind_Speed_500mb
8 8 11 10 11 23 31 3 7 5 7 6 11 19 46 36 43 57 61 57 54 54 55 53 46 41 35 35 40 39 41 42
7 16 12 10 7 10 8 24 22 17 5 8 4 30 30 38 50 62 57 54 52 54 58 55 48 41 35 37 41 41 43 42
4 13 13 9 15 19 14 8 23 25 7 9 33 10 26 44 54 52 56 54 52 54 58 56 50 42 36 35 40 40 41 40
11 11 5 11 42 41 36 36 6 21 8 8 18 19 38 48 49 50 54 53 53 55 58 56 50 44 37 37 40 40 38 37
9 2 7 15 26 24 49 35 31 35 6 9 34 42 42 41 43 51 52 54 56 58 58 54 50 44 39 37 41 40 37 37
10 6 14 10 24 45 49 30 33 29 16 18 54 60 52 44 40 48 49 51 56 59 60 57 51 46 40 38 42 40 37 35
8 13 13 18 17 39 22 48 43 40 27 52 69 65 57 51 50 54 51 50 50 54 58 58 54 49 42 39 43 41 40 37
11 7 7 28 13 39 14 39 15 23 30 71 75 70 63 60 57 56 55 55 53 53 56 58 57 53 47 43 46 44 41 39
13 39 27 19 37 24 33 1 25 62 77 78 74 71 64 58 42 42 50 52 52 52 53 56 59 55 50 47 48 46 41 38
31 55 27 8 18 21 12 26 45 70 85 81 76 76 70 63 57 49 51 47 48 51 52 52 52 54 52 49 50 50 45 41
47 48 52 28 17 22 6 30 47 64 76 82 77 72 69 59 57 55 54 49 46 47 49 50 50 50 51 49 50 50 47 43
41 56 35 12 11 8 11 42 62 65 56 55 57 72 68 67 64 65 57 52 49 46 45 46 48 47 46 45 45 49 48 44
17 28 18 23 6 7 38 56 55 45 39 42 39 51 66 63 56 61 60 53 50 47 45 39 45 43 42 39 39 44 47 45
11 10 16 26 11 7 49 67 44 44 43 45 44 48 53 62 57 61 64 62 55 49 44 35 40 39 34 35 28 32 40 46
13 18 7 9 10 9 38 67 47 49 52 56 52 45 42 43 52 55 55 60 58 54 44 22 39 38 31 36 33 25 26 40
8 6 7 9 9 21 28 58 48 51 57 61 55 47 42 37 34 41 46 52 52 58 53 39 35 42 37 44 38 32 27 34
27 18 13 17 16 19 20 37 43 48 57 55 47 38 33 34 32 33 38 46 50 60 59 55 53 48 51 48 49 48 43 43
12 3 14 18 12 13 10 2 32 54 50 46 41 33 26 22 19 28 29 32 43 48 59 58 49 46 51 54 51 53 54 54
3 7 24 23 9 4 7 12 18 30 40 37 32 27 20 16 16 16 26 34 34 35 40 55 48 50 45 42 40 45 49 50
15 10 9 6 5 7 4 1 4 19 36 34 29 24 19 16 14 17 19 22 29 34 39 47 46 43 46 45 48 52 52 47
Wind_Direction_500mb
128 146 186 222 197 225 249 34 145 238 195 160 170 149 147 160 171 173 173 173 175 177 175 173 170 165 161 158 154 153 153 150
113 225 250 230 240 209 264 287 261 309 102 119 289 149 159 163 162 170 171 172 175 176 175 174 172 169 164 160 156 155 152 149
247 244 254 225 261 197 185 228 264 246 221 94 147 161 161 160 164 172 171 172 175 176 175 175 174 171 167 163 161 159 156 153
225 223 266 242 250 234 233 206 222 186 187 113 194 170 153 158 168 176 173 172 174 175 176 176 176 174 172 168 166 165 163 160
235 14 245 225 253 214 229 193 187 165 96 148 167 159 153 160 172 178 176 173 174 175 177 179 179 178 176 174 170 169 168 164
245 135 259 235 315 289 223 208 175 177 172 175 168 158 156 158 170 178 178 179 180 179 181 182 183 183 182 177 175 171 170 170
222 156 254 306 356 342 183 151 158 184 196 170 159 162 160 160 168 177 182 185 187 187 188 187 187 187 186 182 178 176 174 174
210 225 253 301 334 312 126 133 126 140 164 160 163 169 169 167 170 179 184 186 191 193 194 193 193 193 191 188 184 182 181 179
254 278 290 291 320 328 140 116 197 144 151 166 171 175 179 174 180 183 184 188 194 197 197 198 199 199 198 195 191 187 187 186
265 269 272 256 325 324 188 192 177 167 166 172 180 182 187 183 185 188 189 192 194 199 203 202 203 203 204 200 196 193 191 191
247 264 266 274 282 251 226 179 170 151 169 176 184 191 194 194 191 195 196 195 198 199 208 208 204 204 205 204 202 199 197 197
269 267 262 236 283 228 76 156 157 159 164 176 186 195 198 200 202 205 200 201 200 200 206 213 209 209 208 207 207 205 205 204
252 251 241 200 245 110 140 147 153 161 168 167 175 197 206 210 216 217 210 206 204 202 201 209 214 213 213 210 210 212 212 212
274 148 254 154 221 143 151 153 143 152 155 158 150 167 188 202 210 222 216 210 207 202 198 210 211 207 202 201 207 217 222 221
310 199 110 108 135 153 149 144 131 144 148 145 136 141 154 174 198 210 218 211 212 207 197 204 214 208 211 221 215 222 232 231
222 224 141 97 105 143 159 140 138 138 139 140 142 139 143 147 170 190 209 213 211 217 216 212 212 215 225 233 233 233 236 228
283 244 125 146 138 156 157 140 136 144 147 141 134 137 143 146 154 176 192 211 208 215 223 224 225 222 231 238 244 239 234 231
283 336 98 133 84 88 71 15 151 151 155 149 138 138 139 142 151 156 166 185 204 212 217 223 225 225 234 240 240 239 243 243
137 46 64 102 54 57 10 83 147 160 159 152 149 152 152 156 166 168 173 178 181 181 203 215 221 228 236 239 238 238 241 239
68 61 130 59 193 290 190 212 204 161 159 155 153 154 158 162 171 188 188 182 198 208 203 206 217 226 238 245 245 250 251 254
Wind_Speed_850mb
8 8 11 10 11 23 31 3 7 5 7 6 11 19 46 36 43 57 61 57 54 54 55 53 46 41 35 35 40 39 41 42
7 16 12 10 7 10 8 24 22 17 5 8 4 30 30 38 50 62 57 54 52 54 58 55 48 41 35 37 41 41 43 42
4 13 13 9 15 19 14 8 23 25 7 9 33 10 26 44 54 52 56 54 52 54 58 56 50 42 36 35 40 40 41 40
11 11 5 11 42 41 36 36 6 21 8 8 18 19 38 48 49 50 54 53 53 55 58 56 50 44 37 37 40 40 38 37
9 2 7 15 26 24 49 35 31 35 6 9 34 42 42 41 43 51 52 54 56 58 58 54 50 44 39 37 41 40 37 37
10 6 14 10 24 45 49 30 33 29 16 18 54 60 52 44 40 48 49 51 56 59 60 57 51 46 40 38 42 40 37 35
8 13 13 18 17 39 22 48 43 40 27 52 69 65 57 51 50 54 51 50 50 54 58 58 54 49 42 39 43 41 40 37
11 7 7 28 13 39 14 39 15 23 30 71 75 70 63 60 57 56 55 55 53 53 56 58 57 53 47 43 46 44 41 39
13 39 27 19 37 24 33 1 25 62 77 78 74 71 64 58 42 42 50 52 52 52 53 56 59 55 50 47 48 46 41 38
31 55 27 8 18 21 12 26 45 70 85 81 76 76 70 63 57 49 51 47 48 51 52 52 52 54 52 49 50 50 45 41
47 48 52 28 17 22 6 30 47 64 76 82 77 72 69 59 57 55 54 49 46 47 49 50 50 50 51 49 50 50 47 43
41 56 35 12 11 8 11 42 62 65 56 55 57 72 68 67 64 65 57 52 49 46 45 46 48 47 46 45 45 49 48 44
17 28 18 23 6 7 38 56 55 45 39 42 39 51 66 63 56 61 60 53 50 47 45 39 45 43 42 39 39 44 47 45
11 10 16 26 11 7 49 67 44 44 43 45 44 48 53 62 57 61 64 62 55 49 44 35 40 39 34 35 28 32 40 46
13 18 7 9 10 9 38 67 47 49 52 56 52 45 42 43 52 55 55 60 58 54 44 22 39 38 31 36 33 25 26 40
8 6 7 9 9 21 28 58 48 51 57 61 55 47 42 37 34 41 46 52 52 58 53 39 35 42 37 44 38 32 27 34
27 18 13 17 16 19 20 37 43 48 57 55 47 38 33 34 32 33 38 46 50 60 59 55 53 48 51 48 49 48 43 43
12 3 14 18 12 13 10 2 32 54 50 46 41 33 26 22 19 28 29 32 43 48 59 58 49 46 51 54 51 53 54 54
3 7 24 23 9 4 7 12 18 30 40 37 32 27 20 16 16 16 26 34 34 35 40 55 48 50 45 42 40 45 49 50
15 10 9 6 5 7 4 1 4 19 36 34 29 24 19 16 14 17 19 22 29 34 39 47 46 43 46 45 48 52 52 47
Wind_Direction_850mb
128 146 186 222 197 225 249 34 145 238 195 160 170 149 147 160 171 173 173 173 175 177 175 173 170 165 161 158 154 153 153 150
113 225 250 230 240 209 264 287 261 309 102 119 289 149 159 163 162 170 171 172 175 176 175 174 172 169 164 160 156 155 152 149
247 244 254 225 261 197 185 228 264 246 221 94 147 161 161 160 164 172 171 172 175 176 175 175 174 171 167 163 161 159 156 153
225 223 266 242 250 234 233 206 222 186 187 113 194 170 153 158 168 176 173 172 174 175 176 176 176 174 172 168 166 165 163 160
235 14 245 225 253 214 229 193 187 165 96 148 167 159 153 160 172 178 176 173 174 175 177 179 179 178 176 174 170 169 168 164
245 135 259 235 315 289 223 208 175 177 172 175 168 158 156 158 170 178 178 179 180 179 181 182 183 183 182 177 175 171 170 170
222 156 254 306 356 342 183 151 158 184 196 170 159 162 160 160 168 177 182 185 187 187 188 187 187 187 186 182 178 176 174 174
210 225 253 301 334 312 126 133 126 140 164 160 163 169 169 167 170 179 184 186 191 193 194 193 193 193 191 188 184 182 181 179
254 278 290 291 320 328 140 116 197 144 151 166 171 175 179 174 180 183 184 188 194 197 197 198 199 199 198 195 191 187 187 186
265 269 272 256 325 324 188 192 177 167 166 172 180 182 187 183 185 188 189 192 194 199 203 202 203 203 204 200 196 193 191 191
247 264 266 274 282 251 226 179 170 151 169 176 184 191 194 194 191 195 196 195 198 199 208 208 204 204 205 204 202 199 197 197
269 267 262 236 283 228 76 156 157 159 164 176 186 195 198 200 202 205 200 201 200 200 206 213 209 209 208 207 207 205 205 204
252 251 241 200 245 110 140 147 153 161 168 167 175 197 206 210 216 217 210 206 204 202 201 209 214 213 213 210 210 212 212 212
274 148 254 154 221 143 151 153 143 152 155 158 150 167 188 202 210 222 216 210 207 202 198 210 211 207 202 201 207 217 222 221
310 199 110 108 135 153 149 144 131 144 148 145 136 141 154 174 198 210 218 211 212 207 197 204 214 208 211 221 215 222 232 231
222 224 141 97 105 143 159 140 138 138 139 140 142 139 143 147 170 190 209 213 211 217 216 212 212 215 225 233 233 233 236 228
283 244 125 146 138 156 157 140 136 144 147 141 134 137 143 146 154 176 192 211 208 215 223 224 225 222 231 238 244 239 234 231
283 336 98 133 84 88 71 15 151 151 155 149 138 138 139 142 151 156 166 185 204 212 217 223 225 225 234 240 240 239 243 243
137 46 64 102 54 57 10 83 147 160 159 152 149 152 152 156 166 168 173 178 181 181 203 215 221 228 236 239 238 238 241 239
68 61 130 59 193 290 190 212 204 161 159 155 153 154 158 162 171 188 188 182 198 208 203 206 217 226 238 245 245 250 251 254